カタログに戻る

STARLINK-32201

運用中通信VLEO
NORAD 61512·PAYLOAD·🇺🇸 United States

打ち上げ Oct 15, 2024 から Cape Canaveral Space Force Station

Loading…

次のパス (今後24時間)

TLE

最新Source: CelesTrak SupGP

元期: Sep 15, 2026, 03:09 UTC

1 61512C 24183D   26258.13173611  .00058116  00000+0  17165-2 0  2589
2 61512  53.1582 326.5939 0001115  93.4365 172.4036 15.34371775    13

AllMySatでSTARLINK-32201をリアルタイム追跡

Download on the App Store